Regional Weather Roundup
Issued by NWS Columbia, SC

Home | Current Version | Previous Version | Text Only | Print | Product List | Glossary On
Versions: 1 2 3 4 5 6 7 8 9 10 11 12 13 14 15 16 17 18 19 20 21 22 23 24 25 26 27 28 29 30 31 32 33 34 35 36 37 38 39 40 41 42 43 44 45 46 47 48 49 50
000
ASUS42 KCAE 190110
RWRCAE
REGIONAL WEATHER ROUNDUP
NATIONAL WEATHER SERVICE COLUMBIA SC
900 PM EDT SAT APR 18 2015

NOTE: "FAIR" INDICATES FEW OR NO CLOUDS BELOW 12,000 FEET WITH NO
SIGNIFICANT WEATHER AND/OR OBSTRUCTIONS TO VISIBILITY.

NOT ALL STATIONS ARE QUALITY CONTROLLED BY THE NATIONAL
WEATHER SERVICE. USE DATA WITH CAUTION...ESPECIALLY
DEWPOINT OBSERVATIONS.

SCZ001>056-GAZ040-063>065-077-190200-
...UPSTATE SOUTH CAROLINA...

CITY           SKY/WX    TMP DP  RH WIND       PRES   REMARKS
ANDERSON       CLOUDY    67  64  90 CALM      29.97R
LIBERTY        CLOUDY    68  64  87 CALM      29.98R
SPARTANBURG    CLOUDY    70  66  88 CALM      29.97R
CLEMSON        CLOUDY    70  63  78 CALM      29.98R
GREENVILLE     CLOUDY    69  60  73 E5        29.98R
GREENWOOD      CLOUDY    67  65  93 CALM      29.98R
GREER          CLOUDY    66  62  87 CALM      29.97R
ROCK HILL      CLOUDY    67  65  93 CALM      29.97R
LAURENS        CLOUDY    68  68 100 CALM      29.97R


...CENTRAL SOUTH CAROLINA...

CITY           SKY/WX    TMP DP  RH WIND       PRES   REMARKS
COLUMBIA APT   CLOUDY    71  66  84 E5        29.94R
COLUMBIA OWENS CLOUDY    70  66  87 CALM      29.96R
DARLINGTON     CLOUDY    72  64  78 SE6       29.97R
FLORENCE       CLOUDY    72  66  81 SE6       29.95R
MCENTIRE ANGB  MOCLDY    69  68  97 NE2       29.95R
ORANGEBURG     MOCLDY    69  65  86 SE6       29.95R
SUMTER SHAW    MOCLDY    70  67  92 SE2       29.94R
NEWBERRY       CLOUDY    66  66 100 CALM      29.98R
AIKEN          FAIR      63  63 100 CALM      29.98R FOG
BARNWELL       FAIR      70  70 100 SE3       29.95R
MANNING        LGT RAIN  68  52  56 SE5       29.97R
CAMDEN         FAIR      70  68  94 CALM      29.96R
LANCASTER      CLOUDY    68  68 100 CALM      29.97R
WINNSBORO      CLOUDY    68  68 100 E3        29.96R


...EASTERN AND COASTAL SOUTH CAROLINA...

CITY           SKY/WX    TMP DP  RH WIND       PRES   REMARKS
MYRTLE BEACH   CLEAR     68  63  83 CALM      29.98R
N MYRTLE BCH   MOCLDY    65  63  93 CALM      29.96R
CONWAY         FAIR      66  64  94 CALM      29.97R
MARION         MOCLDY    70  64  83 SE3       29.96R
HARTSVILLE     CLOUDY    70  66  88 CALM      29.97R
FLORENCE       CLOUDY    72  66  81 SE6       29.95R
DARLINGTON     CLOUDY    72  64  78 SE6       29.97R
CHARLESTON APT PTCLDY    68  65  90 E5        29.97R
MOUNT PLEASANT MOCLDY    66  66 100 CALM      29.97R
WALTERBORO     HVY RAIN  66  66 100 E5        29.97R VSB 1
BEAUFORT       PTCLDY    70  67  90 SE6       29.95R


...EASTERN GEORGIA...

CITY           SKY/WX    TMP DP  RH WIND       PRES   REMARKS
AUGUSTA BUSH F MOCLDY    65  65 100 CALM      29.93R
AUGUSTA DANIEL MOCLDY    70  66  87 E3        29.95R
THOMSON        MOCLDY    69  69 100 CALM      29.99R
WASHINGTON     FAIR      68  68 100 CALM      29.96R
CLAXTON        MOCLDY    72  70  94 CALM      29.94R
SYLVANIA       PTCLDY    71  71  97 E5        29.95R
STATESBORO       N/A     70  70 100 CALM      29.94R
SAVANNAH       MOCLDY    70  65  84 SE7       29.95R


...SOUTHERN NORTH CAROLINA...

CITY           SKY/WX    TMP DP  RH WIND       PRES   REMARKS
CHARLOTTE      LGT RAIN  72  59  63 SE7       29.97R
MONROE         CLOUDY    69  63  81 CALM      29.97R
WADESBORO      CLOUDY    68  66  94 CALM      29.97R
ROCKINGHAM     CLOUDY    68  64  88 CALM      29.97R
RUTHERFORDTON  CLOUDY    66  65  97 CALM      29.98R
ASHEVILLE      CLOUDY    64  60  87 CALM      30.02R

$$



USA.gov is the U.S. government's official web portal to all federal, state and local government web resources and services.